Namest Nad Oslav, Czech Republic

9:15 AM CET on February 09, 2016 (GMT +0100)
Namest

Weather History for LKNA - December, 2012

Change the Weather History Date:

Sunday, December 9, 2012

  Actual Average Record
Temperature  
Mean Temperature 18 °F -  
Max Temperature 24 °F - - ()
Min Temperature 12 °F - - ()
Degree Days  
Heating Degree Days 47    
Moisture  
Dew Point 15 °F    
Average Humidity 84    
Maximum Humidity 100    
Minimum Humidity 64    
Precipitation  
Precipitation 0.00 in - - ()
Sea Level Pressure  
Sea Level Pressure 29.97 in    
Wind  
Wind Speed 5 mph ()    
Max Wind Speed 14 mph    
Max Gust Speed -    
Visibility 3.0 miles    
Events Snow    
T = Trace of Precipitation, MM = Missing Value Source: Averaged Metar Reports

Daily Weather History Graph

Daily Weather History Graph

Search for Another Location

Airport or City:

Trip Planner

Search our weather history database for the weather conditions in past years. The results will help you decide how hot, cold, wet, or windy it might be!

Date:

Astronomy

Dec. 09, 2012 Rise Set
Actual Time 7:38 AM CET 3:57 PM CET
Civil Twilight 7:01 AM CET 4:34 PM CET
Nautical Twilight 6:20 AM CET 5:15 PM CET
Astronomical Twilight 5:42 AM CET 5:53 PM CET
Moon 2:32 AM CET 1:09 PM CET
Length of Visible Light 9h 33m
Length of Day
8h 18m
Waning Crescent, 21% of the Moon is Illuminated
Dec 9
Waning Crescent
Dec 13
New
Dec 20
First Quarter
Dec 28
Full
Jan 5
Last Quarter

Hourly Weather History & Observations

Time (CET) Temp. Windchill Dew Point Humidity Pressure Visibility Wind Dir Wind Speed Gust Speed Precip Events Conditions
12:00 AM 17.6 °F 10.7 °F 15.8 °F 93% 30.12 in 3.7 mi NNW 4.6 mph - N/A   Partly Cloudy
1:00 AM 15.8 °F 7.2 °F 14.0 °F 93% 30.12 in 3.7 mi NW 5.8 mph - N/A   Unknown
2:00 AM 15.8 °F 10.2 °F 14.0 °F 93% 30.12 in 3.7 mi NNW 3.5 mph - N/A   Unknown
3:00 AM 15.8 °F 10.2 °F 14.0 °F 93% 30.12 in 5.6 mi North 3.5 mph - N/A   Unknown
5:00 AM 14.0 °F -0.8 °F 10.4 °F 86% 30.09 in - WNW 13.8 mph - N/A   Clear
6:00 AM 14.0 °F 3.9 °F 10.4 °F 86% 30.09 in - NW 6.9 mph - N/A   Clear
7:00 AM 12.2 °F 6.1 °F 10.4 °F 92% 30.09 in - North 3.5 mph - N/A   Clear
8:00 AM 12.2 °F - 10.4 °F 92% 30.12 in - North 1.2 mph - N/A   Clear
9:00 AM 12.2 °F - 10.4 °F 92% 30.09 in - Variable 2.3 mph - N/A   Clear
10:00 AM 15.8 °F - 10.4 °F 79% 30.09 in 5.0 mi Variable 2.3 mph - N/A   Unknown
11:00 AM 17.6 °F 12.3 °F 12.2 °F 79% 30.06 in 5.6 mi WNW 3.5 mph - N/A   Unknown
12:00 PM 21.2 °F 14.9 °F 12.2 °F 68% 30.04 in - NW 4.6 mph - N/A   Clear
1:00 PM 23.0 °F 14.7 °F 14.0 °F 68% 30.01 in - NW 6.9 mph - N/A   Clear
2:00 PM 24.8 °F 19.1 °F 14.0 °F 64% 29.98 in - SW 4.6 mph - N/A   Clear
3:00 PM 24.8 °F 17.9 °F 14.0 °F 64% 29.95 in - SW 5.8 mph - N/A   Clear
4:00 PM 21.2 °F 14.9 °F 14.0 °F 74% 29.92 in - SSW 4.6 mph - N/A   Clear
5:00 PM 21.2 °F 16.4 °F 14.0 °F 74% 29.89 in - SSW 3.5 mph - N/A   Clear
6:00 PM 23.0 °F 12.4 °F 14.0 °F 68% 29.86 in 5.0 mi SW 10.4 mph - N/A   Mostly Cloudy
7:00 PM 23.0 °F 13.9 °F 19.4 °F 86% 29.86 in 3.7 mi WSW 8.1 mph - N/A Snow Light Snow
7:02 PM 23.0 °F 14.7 °F 19.4 °F 86% 29.86 in 1.9 mi WSW 6.9 mph - N/A Snow Light Snow
7:17 PM 23.0 °F 15.8 °F 21.2 °F 93% 29.83 in 0.7 mi WSW 5.8 mph - N/A Snow Snow
7:42 PM 23.0 °F 15.8 °F 21.2 °F 93% 29.83 in 0.5 mi SW 5.8 mph - N/A Snow Snow
8:00 PM 23.0 °F 14.7 °F 21.2 °F 93% 29.83 in 0.7 mi SW 6.9 mph - N/A Snow Light Snow
9:00 PM 24.8 °F 17.9 °F 23.0 °F 93% 29.80 in 1.2 mi SSW 5.8 mph - N/A Snow Light Snow
10:00 PM 23.0 °F 17.0 °F 23.0 °F 100% 29.77 in 1.9 mi South 4.6 mph - N/A Snow Light Snow
11:00 PM 24.8 °F 20.5 °F 23.0 °F 93% 29.77 in 1.6 mi South 3.5 mph - N/A Snow Light Snow